Marfa, TX

3:21 PM CDT on April 24, 2017 (GMT -0500)
Marfa Municipal

Weather History for KMRF - March, 2013

Change the Weather History Date:

Sunday, March 10, 2013

  Actual Average Record
Temperature  
Mean Temperature 40 °F -  
Max Temperature 48 °F 64 °F 79 °F (2017)
Min Temperature 30 °F 33 °F 21 °F (1998)
Degree Days  
Heating Degree Days 24    
Moisture  
Dew Point 16 °F    
Average Humidity 37    
Maximum Humidity 52    
Minimum Humidity 24    
Precipitation  
Precipitation 0.00 in - - ()
Sea Level Pressure  
Sea Level Pressure 30.10 in    
Wind  
Wind Speed 13 mph (North)    
Max Wind Speed 25 mph    
Max Gust Speed 32 mph    
Visibility 10 miles    
Events      
Averages and records for this station are not official NWS values.
T = Trace of Precipitation, MM = Missing Value Source: NWS Daily Summary

Daily Weather History Graph

Daily Weather History Graph

Search for Another Location

Airport or City:

Trip Planner

Search our weather history database for the weather conditions in past years. The results will help you decide how hot, cold, wet, or windy it might be!

Date:

Astronomy

Mar. 10, 2013 Rise Set
Actual Time 8:11 AM CDT 8:01 PM CDT
Civil Twilight 7:47 AM CDT 8:25 PM CDT
Nautical Twilight 7:19 AM CDT 8:53 PM CDT
Astronomical Twilight 6:51 AM CDT 9:21 PM CDT
Moon 7:10 AM CDT (3/10) 7:12 PM CDT (3/10)
Length of Visible Light 12h 37m
Length of Day
11h 49m
Waning Crescent, 2% of the Moon is Illuminated
Mar 10
Waning Crescent
Mar 11
New
Mar 19
First Quarter
Mar 27
Full
Apr 2
Last Quarter

Hourly Weather History & Observations

Time (CDT) Temp. Windchill Dew Point Humidity Pressure Visibility Wind Dir Wind Speed Gust Speed Precip Events Conditions
12:15 AM 42.8 °F 34.8 °F 15.8 °F 34% 29.98 in 10.0 mi WNW 17.3 mph - N/A   Clear
12:35 AM 42.8 °F 35.8 °F 15.8 °F 34% 29.99 in 10.0 mi WNW 13.8 mph 19.6 mph N/A   Clear
12:55 AM 42.8 °F 36.2 °F 15.8 °F 34% 29.99 in 10.0 mi NW 12.7 mph 18.4 mph N/A   Clear
1:15 AM 42.8 °F 37.5 °F 15.8 °F 34% 30.00 in 10.0 mi NW 9.2 mph - N/A   Clear
1:35 AM 42.8 °F 36.6 °F 17.6 °F 36% 30.01 in 10.0 mi NW 11.5 mph - N/A   Clear
1:55 AM 41.0 °F 35.2 °F 17.6 °F 39% 30.01 in 10.0 mi NW 9.2 mph - N/A   Clear
3:15 AM 41.0 °F 34.3 °F 17.6 °F 39% 30.01 in 10.0 mi WNW 11.5 mph - N/A   Clear
3:35 AM 39.2 °F 35.0 °F 17.6 °F 42% 30.01 in 10.0 mi WNW 5.8 mph - N/A   Clear
3:55 AM 37.4 °F 32.1 °F 15.8 °F 41% 30.01 in 10.0 mi West 6.9 mph - N/A   Clear
4:15 AM 35.6 °F 29.2 °F 15.8 °F 44% 30.01 in 10.0 mi NNW 8.1 mph - N/A   Clear
4:35 AM 37.4 °F - 17.6 °F 45% 30.00 in 10.0 mi Calm Calm - N/A   Clear
4:55 AM 33.8 °F 30.8 °F 15.8 °F 48% 30.01 in 10.0 mi West 3.5 mph - N/A   Clear
5:15 AM 33.8 °F 30.8 °F 15.8 °F 48% 30.01 in 10.0 mi West 3.5 mph - N/A   Clear
5:35 AM 33.8 °F 25.8 °F 15.8 °F 48% 30.01 in 10.0 mi North 10.4 mph - N/A   Clear
5:55 AM 37.4 °F 31.4 °F 17.6 °F 45% 30.01 in 10.0 mi NNW 8.1 mph - N/A   Clear
6:15 AM 33.8 °F 30.8 °F 17.6 °F 52% 30.02 in 10.0 mi WNW 3.5 mph - N/A   Clear
7:35 AM 35.6 °F 26.6 °F 17.6 °F 48% 30.05 in 10.0 mi NNE 13.8 mph - N/A   Clear
7:55 AM 35.6 °F 25.9 °F 19.4 °F 52% 30.06 in 10.0 mi NNE 16.1 mph 23.0 mph N/A   Clear
8:15 AM 35.6 °F 25.2 °F 19.4 °F 52% 30.07 in 10.0 mi NNE 18.4 mph 24.2 mph N/A   Clear
8:35 AM 35.6 °F 25.9 °F 19.4 °F 52% 30.08 in 10.0 mi NNE 16.1 mph 20.7 mph N/A   Clear
8:55 AM 35.6 °F 25.5 °F 19.4 °F 52% 30.09 in 10.0 mi NNE 17.3 mph 21.9 mph N/A   Clear
9:15 AM 35.6 °F 23.7 °F 19.4 °F 52% 30.09 in 10.0 mi NNE 24.2 mph 27.6 mph N/A   Clear
9:35 AM 37.4 °F 26.1 °F 19.4 °F 48% 30.10 in 10.0 mi NNE 24.2 mph 32.2 mph N/A   Clear
9:55 AM 37.4 °F 26.1 °F 19.4 °F 48% 30.11 in 10.0 mi North 24.2 mph - N/A   Clear
10:15 AM 39.2 °F 28.3 °F 19.4 °F 45% 30.11 in 10.0 mi NNE 25.3 mph - N/A   Clear
10:35 AM 39.2 °F 28.3 °F 19.4 °F 45% 30.12 in 10.0 mi NNE 25.3 mph 29.9 mph N/A   Clear
10:55 AM 39.2 °F 29.0 °F 19.4 °F 45% 30.14 in 10.0 mi NNE 21.9 mph 26.5 mph N/A   Clear
11:15 AM 41.0 °F 31.6 °F 19.4 °F 42% 30.14 in 10.0 mi NNE 20.7 mph 24.2 mph N/A   Clear
11:35 AM 42.8 °F 34.5 °F 19.4 °F 39% 30.14 in 10.0 mi NNE 18.4 mph 25.3 mph N/A   Clear
11:55 AM 42.8 °F 34.8 °F 19.4 °F 39% 30.14 in 10.0 mi NE 17.3 mph 21.9 mph N/A   Clear
12:15 PM 44.6 °F 37.8 °F 19.4 °F 37% 30.15 in 10.0 mi NNE 15.0 mph 21.9 mph N/A   Clear
12:35 PM 44.6 °F 37.2 °F 19.4 °F 37% 30.14 in 10.0 mi NNE 17.3 mph 23.0 mph N/A   Clear
12:55 PM 44.6 °F 37.2 °F 19.4 °F 37% 30.14 in 10.0 mi NNE 17.3 mph 23.0 mph N/A   Clear
1:15 PM 46.4 °F 40.1 °F 19.4 °F 34% 30.14 in 10.0 mi NNE 15.0 mph 21.9 mph N/A   Clear
1:35 PM 46.4 °F 40.7 °F 17.6 °F 32% 30.13 in 10.0 mi North 12.7 mph 19.6 mph N/A   Clear
1:55 PM 46.4 °F 39.5 °F 17.6 °F 32% 30.12 in 10.0 mi NNE 17.3 mph 24.2 mph N/A   Clear
2:15 PM 46.4 °F 39.5 °F 17.6 °F 32% 30.11 in 10.0 mi NNE 17.3 mph 21.9 mph N/A   Clear
2:35 PM 46.4 °F 40.4 °F 17.6 °F 32% 30.10 in 10.0 mi NE 13.8 mph 18.4 mph N/A   Clear
2:55 PM 48.2 °F - 17.6 °F 30% 30.09 in 10.0 mi North 10.4 mph 19.6 mph N/A   Clear
3:15 PM 46.4 °F 42.9 °F 15.8 °F 29% 30.09 in 10.0 mi NNE 6.9 mph - N/A   Clear
3:35 PM 48.2 °F - 17.6 °F 30% 30.09 in 10.0 mi NW 8.1 mph - N/A   Partly Cloudy
3:55 PM 48.2 °F - 15.8 °F 27% 30.08 in 10.0 mi North 9.2 mph - N/A   Partly Cloudy
4:15 PM 48.2 °F - 15.8 °F 27% 30.08 in 10.0 mi NE 11.5 mph - N/A   Clear
4:35 PM 48.2 °F - 15.8 °F 27% 30.08 in 10.0 mi NE 11.5 mph - N/A   Clear
4:55 PM 48.2 °F - 15.8 °F 27% 30.09 in 10.0 mi North 8.1 mph - N/A   Partly Cloudy
5:15 PM 48.2 °F - 15.8 °F 27% 30.09 in 10.0 mi NNE 8.1 mph - N/A   Partly Cloudy
5:35 PM 48.2 °F - 15.8 °F 27% 30.09 in 10.0 mi NNE 13.8 mph - N/A   Scattered Clouds
5:55 PM 48.2 °F - 15.8 °F 27% 30.09 in 10.0 mi NNE 13.8 mph 18.4 mph N/A   Partly Cloudy
6:15 PM 48.2 °F - 14.0 °F 25% 30.10 in 10.0 mi NNE 11.5 mph - N/A   Clear
6:35 PM 48.2 °F - 12.2 °F 24% 30.10 in 10.0 mi North 16.1 mph 20.7 mph N/A   Clear
6:55 PM 46.4 °F 39.8 °F 12.2 °F 25% 30.11 in 10.0 mi NNE 16.1 mph 21.9 mph N/A   Clear
7:15 PM 46.4 °F 39.8 °F 12.2 °F 25% 30.12 in 10.0 mi NNE 16.1 mph 19.6 mph N/A   Clear
7:35 PM 44.6 °F 37.4 °F 12.2 °F 27% 30.13 in 10.0 mi NNE 16.1 mph - N/A   Clear
7:55 PM 44.6 °F 37.8 °F 12.2 °F 27% 30.14 in 10.0 mi NNE 15.0 mph 20.7 mph N/A   Clear
8:15 PM 42.8 °F 35.8 °F 10.4 °F 27% 30.15 in 10.0 mi NNE 13.8 mph - N/A   Clear
8:35 PM 41.0 °F 35.2 °F 10.4 °F 29% 30.16 in 10.0 mi North 9.2 mph - N/A   Clear
9:15 PM 39.2 °F 33.0 °F 10.4 °F 31% 30.18 in 10.0 mi NNE 9.2 mph - N/A   Clear
9:35 PM 39.2 °F 33.6 °F 12.2 °F 33% 30.18 in 10.0 mi NNE 8.1 mph - N/A   Clear
9:55 PM 37.4 °F 31.4 °F 10.4 °F 33% 30.19 in 10.0 mi North 8.1 mph - N/A   Clear
10:15 PM 35.6 °F 29.9 °F 10.4 °F 35% 30.20 in 10.0 mi NE 6.9 mph - N/A   Clear
10:35 PM 35.6 °F 31.7 °F 12.2 °F 38% 30.20 in 10.0 mi NNE 4.6 mph - N/A   Clear
10:55 PM 33.8 °F 27.0 °F 10.4 °F 38% 30.21 in 10.0 mi NNE 8.1 mph - N/A   Clear
11:15 PM 37.4 °F 32.1 °F 12.2 °F 36% 30.21 in 10.0 mi NNE 6.9 mph - N/A   Clear
11:35 PM 33.8 °F 30.8 °F 10.4 °F 38% 30.22 in 10.0 mi SE 3.5 mph - N/A   Clear
12:15 AM 35.6 °F - 10.4 °F 35% 30.22 in 10.0 mi Calm Calm - N/A   Clear
12:35 AM 33.8 °F 30.8 °F 8.6 °F 35% 30.22 in 10.0 mi NNW 3.5 mph - N/A   Clear
12:55 AM 30.2 °F 23.4 °F 10.4 °F 44% 30.22 in 10.0 mi NNW 6.9 mph - N/A   Clear